Location: Oberkirch
(48.5323°N, 8.0787°E)
Time: 15:37:14
(UTC+00:00)

SR - Pass Details

Date: 26 February 2026
Orbit: 573 x 848 km, 66.7° (Epoch: 7 March)

Event Time Altitude Azimuth Distance (km) Brightness Sun altitude
Exits shadow 02:27:24 15° 35° (NE) 1,701 ? -37.1°
Drops below altitude 10° 02:28:13 10° 35° (NE) 2,026 ? -37.0°
Sets 02:30:35 0° 36° (NE) 2,981 ? -36.6°
